Epoch,demod_status_bits,ebno,lock_status,signal_level,viterbi_ber
1664133880,,,0xc0504d,-39.1,
1664133881,C;S;V;F,12.4,0x00c000,,1.96e-6
1664133882,C;S;V;F,12.0,0x00c000,-39.2,2.42e-6
1664133883,C;S;V;F,12.4,0x00c000,-38.0,2.87e-6
1664133884,C;S;V;F,13.9,0x00c000,-38.3,1.51e-6
1664133885,C;S;V;F,12.3,0x00c000,-39.2,2.26e-6
1664133886,C;S;V;F,12.3,0x00c000,-39.4,3.02e-6
1664133887,C;S;V;F,12.7,0x00c000,-38.9,2.11e-6
1664133888,C;S;V;F,13.1,0x00c000,-38.2,9.09e-7
1664133889,,12.1,0x00c000,-39.4,
1664133890,C;S;V;F,13.7,0x00c000,-38.1,9.09e-7
1664133891,C;S;V;F,12.9,0x00c000,-38.9,2.57e-6
1664133892,C;S;V;F,,0x00c000,-38.3,2.26e-6
1664133893,C;S;V;F,12.9,0x00c000,-38.5,9.09e-7
1664133894,C;S;V;F,13.2,0x00c000,,6.06e-7
1664133895,C;S;V;F,12.8,0x00c000,-38.5,7.57e-7
1664133896,C;S;V;F,13.2,0x00c000,-38.1,7.57e-7
1664133897,C;S;V;F,12.8,0x00c000,-38.9,6.06e-7
1664133898,C;S;V;F,13.1,0x00c000,-38.3,1.51e-7
1664133899,C;S;V;F,13.4,0x00c000,-38.4,0.00e-0
1664133900,C;S;V;F,12.9,0x00c000,-38.3,1.51e-7
1664133901,C;S;V;F,12.8,0x00c000,-38.1,
1664133902,,13.5,0x00c000,-37.8,1.51e-7
1664133903,C;S;V;F,13.1,0x00c000,-37.9,0.00e-0
1664133904,C;S;V;F,12.7,0x00c000,-38.7,0.00e-0
1664133905,C;S;V;F,,0x00c000,-38.7,4.54e-7
1664133906,C;S;V;F,13.1,0x00c000,,6.06e-7
1664133907,C;S;V;F,13.9,0x00c000,-37.4,1.51e-7
1664133908,C;S;V;F,13.4,0x00c000,-38.8,0.00e-0
1664133909,C;S;V;F,13.2,0x00c000,-38.2,1.51e-7
1664133910,C;S;V;F,14.0,0x00c000,-37.7,0.00e-0
1664133911,C;S;V;F,13.7,0x00c000,-37.6,0.00e-0
1664133912,C;S;V;F,14.3,0x00c000,-37.6,0.00e-0
1664133913,C;S;V;F,13.2,0x00c000,-38.2,
1664133914,,14.1,0x00c000,-37.5,0.00e-0
1664133915,C;S;V;F,14.2,0x00c000,-37.6,0.00e-0
1664133916,C;S;V;F,,0x00c000,-38.0,0.00e-0
1664133917,C;S;V;F,13.7,0x00c000,,0.00e-0
1664133918,C;S;V;F,14.7,0x00c000,-37.2,0.00e-0
1664133919,C;S;V;F,13.9,0x00c000,-37.9,0.00e-0
1664133920,C;S;V;F,14.7,0x00c000,-37.2,0.00e-0
1664133921,C;S;V;F,14.4,0x00c000,-37.4,0.00e-0
1664133922,C;S;V;F,14.4,0x00c000,-37.5,0.00e-0
1664133923,C;S;V;F,14.9,0x00c000,-37.0,0.00e-0
1664133924,C;S;V;F,14.7,0x00c000,-37.2,0.00e-0
1664133925,C;S;V;F,15.0,0x00c000,-36.8,
1664133926,,14.7,0x00c000,-37.1,0.00e-0
1664133927,C;S;V;F,14.9,0x00c000,-37.1,0.00e-0
1664133928,C;S;V;F,14.6,0x00c000,-37.2,0.00e-0
1664133929,C;S;V;F,,0x00c000,-37.0,0.00e-0
1664133930,C;S;V;F,15.0,0x00c000,-37.1,0.00e-0
1664133931,C;S;V;F,14.7,0x00c000,,0.00e-0
1664133932,C;S;V;F,14.7,0x00c000,-37.2,0.00e-0
1664133933,C;S;V;F,14.8,0x00c000,-37.2,0.00e-0
1664133934,C;S;V;F,14.9,0x00c000,-36.6,0.00e-0
1664133935,C;S;V;F,14.9,0x00c000,-37.0,0.00e-0
1664133936,C;S;V;F,15.1,0x00c000,-36.7,0.00e-0
1664133937,C;S;V;F,15.0,0x00c000,-36.6,
1664133938,,15.4,0x00c000,-36.3,0.00e-0
1664133939,C;S;V;F,15.1,0x00c000,-36.8,0.00e-0
1664133940,C;S;V;F,15.3,0x00c000,-36.8,0.00e-0
1664133941,C;S;V;F,,0x00c000,,0.00e-0
1664133943,,15.2,0x00c000,-36.5,
1664133944,C;S;V;F,15.1,0x00c000,-36.8,0.00e-0
1664133945,C;S;V;F,,0x00c000,-36.4,0.00e-0
1664133946,C;S;V;F,15.2,0x00c000,,0.00e-0
1664133947,C;S;V;F,15.6,0x00c000,-36.4,0.00e-0
1664133948,C;S;V;F,15.3,0x00c000,-36.2,0.00e-0
1664133949,C;S;V;F,15.3,0x00c000,-36.4,0.00e-0
1664133950,C;S;V;F,15.3,0x00c000,-36.3,0.00e-0
1664133951,C;S;V;F,15.3,0x00c000,-36.4,0.00e-0
1664133952,C;S;V;F,15.6,0x00c000,-36.3,
1664133953,,15.4,0x00c000,-36.4,0.00e-0
1664133954,C;S;V;F,15.1,0x00c000,-36.3,0.00e-0
1664133955,C;S;V;F,15.3,0x00c000,-36.4,0.00e-0
1664133956,C;S;V;F,15.5,0x00c000,-36.3,0.00e-0
1664133957,C;S;V;F,15.2,0x00c000,-36.4,0.00e-0
1664133958,C;S;V;F,,0x00c000,-36.2,0.00e-0
1664133959,C;S;V;F,15.6,0x00c000,,0.00e-0
1664133960,C;S;V;F,15.3,0x00c000,-36.5,0.00e-0
1664133961,C;S;V;F,15.5,0x00c000,-36.3,0.00e-0
1664133962,C;S;V;F,15.4,0x00c000,-36.4,0.00e-0
1664133963,C;S;V;F,15.5,0x00c000,-36.2,0.00e-0
1664133964,C;S;V;F,15.8,0x00c000,-36.2,0.00e-0
1664133965,C;S;V;F,15.1,0x00c000,-36.3,0.00e-0
1664133966,C;S;V;F,15.3,0x00c000,-36.3,0.00e-0
1664133967,C;S;V;F,15.3,0x00c000,-36.4,
1664133968,C;S;V;F,15.6,0x00c000,-36.3,0.00e-0
1664133969,,15.8,0x00c000,-36.0,0.00e-0
1664133970,C;S;V;F,15.6,0x00c000,-36.3,0.00e-0
1664133971,C;S;V;F,15.4,0x00c000,-36.2,0.00e-0
1664133972,C;S;V;F,,0x00c000,-35.9,0.00e-0
1664133973,C;S;V;F,15.5,0x00c000,,0.00e-0
1664133974,C;S;V;F,15.8,0x00c000,-35.8,0.00e-0
1664133975,C;S;V;F,15.9,0x00c000,-35.9,0.00e-0
1664133976,C;S;V;F,15.6,0x00c000,-36.3,0.00e-0
1664133977,C;S;V;F,16.0,0x00c000,-36.0,0.00e-0
1664133978,C;S;V;F,15.9,0x00c000,-35.8,0.00e-0
1664133979,,15.8,0x00c000,-35.6,
1664133980,C;S;V;F,15.8,0x00c000,-36.0,0.00e-0
1664133981,C;S;V;F,,0x00c000,-35.9,0.00e-0
1664133982,C;S;V;F,16.3,0x00c000,,0.00e-0
1664133983,C;S;V;F,16.0,0x00c000,-35.7,0.00e-0
1664133984,C;S;V;F,16.1,0x00c000,-35.6,0.00e-0
1664133985,C;S;V;F,16.3,0x00c000,-35.3,0.00e-0
1664133986,C;S;V;F,16.1,0x00c000,-35.6,0.00e-0
1664133987,C;S;V;F,16.4,0x00c000,-35.6,0.00e-0
1664133988,C;S;V;F,16.2,0x00c000,-35.6,0.00e-0
1664133989,C;S;V;F,16.0,0x00c000,-35.6,0.00e-0
1664133990,C;S;V;F,16.2,0x00c000,-35.6,
1664133991,,16.1,0x00c000,-35.7,0.00e-0
1664133992,C;S;V;F,16.1,0x00c000,-35.7,0.00e-0
1664133993,C;S;V;F,16.1,0x00c000,-35.7,0.00e-0
1664133994,C;S;V;F,16.3,0x00c000,-35.7,0.00e-0
1664133995,C;S;V;F,,0x00c000,-35.8,0.00e-0
1664133996,C;S;V;F,16.1,0x00c000,-35.9,0.00e-0
1664133997,C;S;V;F,16.3,0x00c000,,0.00e-0
1664133998,C;S;V;F,15.7,0x00c000,-36.1,0.00e-0
1664133999,C;S;V;F,16.0,0x00c000,-36.0,0.00e-0
1664134000,C;S;V;F,16.0,0x00c000,-36.0,0.00e-0
1664134001,C;S;V;F,16.2,0x00c000,-35.5,0.00e-0
1664134002,C;S;V;F,15.9,0x00c000,-36.1,
1664134003,,16.1,0x00c000,-36.0,0.00e-0
1664134004,C;S;V;F,,,,0.00e-0
1664134006,C;S;V;F,16.3,0x00c000,-35.8,0.00e-0
1664134007,,16.0,0x00c000,-36.1,
1664134008,C;S;V;F,16.3,0x00c000,-35.6,0.00e-0
1664134009,C;S;V;F,16.0,0x00c000,-36.1,0.00e-0
1664134010,C;S;V;F,16.1,0x00c000,-36.3,0.00e-0
1664134011,C;S;V;F,,0x00c000,-35.9,0.00e-0
1664134012,C;S;V;F,16.0,0x00c000,,0.00e-0
1664134013,C;S;V;F,16.2,0x00c000,-35.9,0.00e-0
1664134014,C;S;V;F,16.4,0x00c000,-35.6,0.00e-0
1664134015,C;S;V;F,16.6,0x00c000,-35.6,0.00e-0
1664134016,C;S;V;F,16.7,0x00c000,-35.5,0.00e-0
1664134017,C;S;V;F,16.8,0x00c000,-35.3,0.00e-0
1664134018,C;S;V;F,16.7,0x00c000,-35.5,0.00e-0
1664134019,C;S;V;F,16.7,0x00c000,-35.3,0.00e-0
1664134020,C;S;V;F,16.8,0x00c000,-35.4,
1664134021,,17.0,0x00c000,-35.4,0.00e-0
1664134022,C;S;V;F,16.9,0x00c000,-35.3,0.00e-0
1664134023,C;S;V;F,16.9,0x00c000,-35.3,0.00e-0
1664134024,C;S;V;F,,0x00c000,-35.5,0.00e-0
1664134025,C;S;V;F,16.6,0x00c000,,0.00e-0
1664134026,C;S;V;F,16.8,0x00c000,-35.6,0.00e-0
1664134027,C;S;V;F,16.6,0x00c000,-35.5,0.00e-0
1664134028,C;S;V;F,16.8,0x00c000,-35.6,0.00e-0
1664134029,C;S;V;F,16.6,0x00c000,-35.6,0.00e-0
1664134030,C;S;V;F,16.8,0x00c000,-35.7,0.00e-0
1664134031,C;S;V;F,16.7,0x00c000,-35.7,0.00e-0
1664134032,C;S;V;F,16.6,0x00c000,-35.6,
1664134033,,16.5,0x00c000,-35.7,0.00e-0
1664134034,C;S;V;F,16.4,0x00c000,-36.0,0.00e-0
1664134035,C;S;V;F,16.4,0x00c000,-35.8,0.00e-0
1664134036,C;S;V;F,,0x00c000,-36.1,0.00e-0
1664134037,C;S;V;F,16.4,0x00c000,-36.1,0.00e-0
1664134038,C;S;V;F,16.2,0x00c000,,0.00e-0
1664134039,C;S;V;F,16.3,0x00c000,-36.2,0.00e-0
1664134040,C;S;V;F,16.1,0x00c000,-36.3,0.00e-0
1664134041,C;S;V;F,16.4,0x00c000,-36.3,0.00e-0
1664134042,C;S;V;F,16.4,0x00c000,-36.3,0.00e-0
1664134043,C;S;V;F,16.1,0x00c000,-36.3,0.00e-0
1664134044,C;S;V;F,16.4,0x00c000,-36.0,0.00e-0
1664134045,C;S;V;F,16.4,0x00c000,-36.1,0.00e-0
1664134046,,16.4,0x00c000,-36.3,
1664134047,C;S;V;F,16.3,0x00c000,-36.3,0.00e-0
1664134048,C;S;V;F,16.4,0x00c000,-36.3,0.00e-0
1664134049,C;S;V;F,16.3,0x00c000,-36.4,0.00e-0
1664134050,C;S;V;F,,0x00c000,-36.4,0.00e-0
1664134051,C;S;V;F,16.2,0x00c000,,0.00e-0
1664134052,C;S;V;F,16.0,0x00c000,-36.4,0.00e-0
1664134053,C;S;V;F,16.3,0x00c000,-36.2,0.00e-0
1664134054,C;S;V;F,16.0,0x00c000,-36.2,0.00e-0
1664134055,C;S;V;F,16.3,0x00c000,-36.2,0.00e-0
1664134056,C;S;V;F,16.3,0x00c000,-36.1,0.00e-0
1664134057,C;S;V;F,16.4,0x00c000,-36.0,0.00e-0
1664134058,C;S;V;F,16.3,0x00c000,-36.1,
1664134059,,16.4,0x00c000,-36.0,0.00e-0
1664134060,C;S;V;F,16.4,0x00c000,-36.1,0.00e-0
1664134061,C;S;V;F,,0x00c000,-36.3,0.00e-0
1664134062,C;S;V;F,16.3,0x00c000,-36.1,0.00e-0
1664134063,C;S;V;F,16.3,0x00c000,,0.00e-0
1664134064,C;S;V;F,16.3,0x00c000,-36.3,0.00e-0
1664134065,C;S;V;F,16.2,0x00c000,-36.1,0.00e-0
1664134066,C;S;V;F,16.5,0x00c000,-36.3,0.00e-0
1664134069,C;S;V;F,16.4,0x00c000,-36.1,0.00e-0
1664134070,C;S;V;F,16.4,0x00c000,-36.2,0.00e-0
1664134071,C;S;V;F,16.4,0x00c000,-36.2,0.00e-0
1664134072,C;S;V;F,16.3,0x00c000,-36.0,
1664134073,,16.4,0x00c000,-36.0,0.00e-0
1664134074,C;S;V;F,16.4,0x00c000,-36.2,0.00e-0
1664134075,C;S;V;F,16.5,0x00c000,-36.0,0.00e-0
1664134076,C;S;V;F,,0x00c000,-36.0,0.00e-0
1664134077,C;S;V;F,16.4,0x00c000,,0.00e-0
1664134078,C;S;V;F,16.4,0x00c000,-35.9,0.00e-0
1664134079,C;S;V;F,16.6,0x00c000,-35.8,0.00e-0
1664134080,C;S;V;F,16.6,0x00c000,-36.0,0.00e-0
1664134081,C;S;V;F,16.5,0x00c000,-35.8,0.00e-0
1664134082,C;S;V;F,16.5,0x00c000,-36.2,0.00e-0
1664134083,C;S;V;F,16.5,0x00c000,-36.1,0.00e-0
1664134084,C;S;V;F,16.1,0x00c000,-36.2,0.00e-0
1664134085,C;S;V;F,16.4,0x00c000,-36.2,
1664134086,,16.3,0x00c000,-36.2,0.00e-0
1664134087,C;S;V;F,16.3,0x00c000,-36.2,0.00e-0
1664134088,C;S;V;F,16.5,0x00c000,-36.3,0.00e-0
1664134089,C;S;V;F,,0x00c000,-35.8,0.00e-0
1664134090,C;S;V;F,16.5,0x00c000,,0.00e-0
1664134091,C;S;V;F,16.4,0x00c000,-35.9,0.00e-0
1664134092,C;S;V;F,16.3,0x00c000,-36.1,0.00e-0
1664134093,C;S;V;F,16.2,0x00c000,-36.4,0.00e-0
1664134094,C;S;V;F,16.1,0x00c000,-36.4,0.00e-0
1664134095,C;S;V;F,15.9,0x00c000,-36.4,0.00e-0
1664134096,,16.2,0x00c000,-36.4,
1664134097,C;S;V;F,16.1,0x00c000,-36.4,0.00e-0
1664134098,C;S;V;F,16.1,0x00c000,-36.4,0.00e-0
1664134099,C;S;V;F,,0x00c000,-36.2,0.00e-0
1664134100,C;S;V;F,16.5,0x00c000,-36.3,0.00e-0
1664134101,C;S;V;F,16.4,0x00c000,,0.00e-0
1664134102,C;S;V;F,16.3,0x00c000,-36.3,0.00e-0
1664134103,C;S;V;F,16.2,0x00c000,-36.4,0.00e-0
1664134104,C;S;V;F,15.9,0x00c000,-36.5,0.00e-0
1664134105,C;S;V;F,15.8,0x00c000,-36.7,0.00e-0
1664134106,C;S;V;F,15.6,0x00c000,-37.1,0.00e-0
1664134107,C;S;V;F,15.8,0x00c000,-36.8,0.00e-0
1664134108,,15.8,0x00c000,-36.7,
1664134109,C;S;V;F,16.1,0x00c000,-36.6,0.00e-0
1664134110,C;S;V;F,15.9,0x00c000,-36.4,0.00e-0
1664134111,C;S;V;F,16.1,0x00c000,-36.6,0.00e-0
1664134112,C;S;V;F,,0x00c000,-36.8,0.00e-0
1664134113,C;S;V;F,16.0,0x00c000,-36.9,0.00e-0
1664134114,C;S;V;F,15.9,0x00c000,,0.00e-0
1664134115,C;S;V;F,15.7,0x00c000,-37.0,0.00e-0
1664134116,C;S;V;F,15.9,0x00c000,-36.8,0.00e-0
1664134117,C;S;V;F,15.8,0x00c000,-36.8,0.00e-0
1664134118,C;S;V;F,16.0,0x00c000,-36.8,0.00e-0
1664134119,C;S;V;F,15.7,0x00c000,-36.6,0.00e-0
1664134120,C;S;V;F,15.9,0x00c000,-36.8,
1664134121,C;S;V;F,15.9,0x00c000,-37.0,0.00e-0
1664134122,,15.7,0x00c000,-37.1,0.00e-0
1664134123,C;S;V;F,15.8,0x00c000,-37.1,0.00e-0
1664134124,C;S;V;F,,0x00c000,-36.9,0.00e-0
1664134125,C;S;V;F,15.7,0x00c000,-36.5,0.00e-0
1664134126,C;S;V;F,15.6,0x00c000,,0.00e-0
1664134127,C;S;V;F,16.1,0x00c000,-36.5,0.00e-0
1664134128,C;S;V;F,15.9,0x00c000,-36.4,0.00e-0
1664134129,C;S;V;F,16.0,0x00c000,-36.5,0.00e-0
1664134131,,,0x00c000,-37.0,
1664134132,C;S;V;F,15.7,0x00c000,,0.00e-0
1664134133,C;S;V;F,15.8,0x00c000,-36.8,0.00e-0
1664134134,C;S;V;F,16.1,0x00c000,-36.7,0.00e-0
1664134135,C;S;V;F,15.9,0x00c000,-36.7,0.00e-0
1664134136,C;S;V;F,15.6,0x00c000,-37.0,0.00e-0
1664134137,C;S;V;F,15.3,0x00c000,-37.4,0.00e-0
1664134138,C;S;V;F,14.9,0x00c000,-37.7,
1664134139,,14.6,0x00c000,-38.1,0.00e-0
1664134140,C;S;V;F,14.6,0x00c000,-38.3,0.00e-0
1664134141,C;S;V;F,14.4,0x00c000,-38.1,0.00e-0
1664134142,C;S;V;F,,0x00c000,-38.0,0.00e-0
1664134143,C;S;V;F,14.4,0x00c000,-38.1,0.00e-0
1664134144,C;S;V;F,14.6,0x00c000,,0.00e-0
1664134145,C;S;V;F,14.3,0x00c000,-38.5,0.00e-0
1664134146,C;S;V;F,14.1,0x00c000,-38.7,0.00e-0
1664134147,C;S;V;F,13.9,0x00c000,-38.9,0.00e-0
1664134148,C;S;V;F,13.7,0x00c000,-39.2,0.00e-0
1664134149,C;S;V;F,13.5,0x00c000,-39.3,0.00e-0
1664134150,C;S;V;F,13.3,0x00c000,-39.5,
1664134151,,13.2,0x00c000,-39.7,0.00e-0
1664134152,C;S;V;F,12.7,0x00c000,-40.1,0.00e-0
1664134153,C;S;V;F,,0x00c000,-40.6,3.03e-7
1664134154,C;S;V;F,12.4,0x00c000,,1.51e-6
1664134155,C;S;V;F,12.0,0x00c000,-40.7,3.02e-6
1664134156,C;S;V;F,12.3,0x00c000,-40.7,3.78e-6
1664134157,C;S;V;F,12.0,0x00c000,-40.5,2.72e-6
1664134158,C;S;V;F,12.4,0x00c000,-40.4,2.26e-6
1664134159,C;S;V;F,12.3,0x00c000,-40.4,1.81e-6
1664134160,C;S;V;F,12.5,0x00c000,-40.4,1.81e-6
1664134161,C;S;V;F,12.3,0x00c000,-40.3,2.11e-6
1664134162,,12.2,0x00c000,-40.2,
1664134163,C;S;V;F,12.8,0x00c000,-40.0,1.96e-6
1664134164,C;S;V;F,12.4,0x00c000,-40.2,9.09e-7
1664134165,C;S;V;F,,0x00c000,-40.1,6.06e-7
1664134166,C;S;V;F,12.7,0x00c000,-40.0,7.57e-7
1664134167,C;S;V;F,12.7,0x00c000,,7.57e-7
1664134168,C;S;V;F,13.1,0x00c000,-39.6,4.54e-7
1664134169,C;S;V;F,13.6,0x00c000,-39.3,0.00e-0
1664134172,,,0x00c000,-39.2,
1664134173,C;S;V;F,13.4,0x00c000,,0.00e-0
1664134174,C;S;V;F,13.1,0x00c000,-39.9,1.51e-7
1664134175,C;S;V;F,13.1,0x00c000,-39.7,3.03e-7
1664134176,C;S;V;F,13.3,0x00c000,-39.4,1.51e-7
1664134177,C;S;V;F,14.3,0x00c000,-38.7,0.00e-0
1664134178,C;S;V;F,14.9,0x00c000,-37.8,
1664134179,,14.9,0x00c000,-37.8,0.00e-0
1664134180,C;S;V;F,15.1,0x00c000,-37.8,0.00e-0
1664134181,C;S;V;F,14.9,0x00c000,-38.0,0.00e-0
1664134182,C;S;V;F,,0x00c000,-38.2,0.00e-0
1664134183,C;S;V;F,14.7,0x00c000,,0.00e-0
1664134184,C;S;V;F,14.8,0x00c000,-38.0,0.00e-0
1664134185,C;S;V;F,15.2,0x00c000,-37.3,0.00e-0
1664134186,C;S;V;F,15.9,0x00c000,-36.8,0.00e-0
1664134187,C;S;V;F,16.5,0x00c000,-36.1,0.00e-0
1664134188,C;S;V;F,16.2,0x00c000,-36.3,0.00e-0
1664134189,C;S;V;F,16.1,0x00c000,-36.7,0.00e-0
1664134190,C;S;V;F,15.7,0x00c000,-37.3,0.00e-0
1664134191,C;S;V;F,15.2,0x00c000,-37.8,
1664134192,,,,,0.00e-0
1664134193,,15.5,0x00c000,-37.5,
1664134194,C;S;V;F,15.5,0x00c000,-37.1,0.00e-0
1664134195,C;S;V;F,15.5,0x00c000,-37.1,0.00e-0
1664134196,C;S;V;F,,0x00c000,-37.3,0.00e-0
1664134197,C;S;V;F,15.6,0x00c000,,0.00e-0
1664134198,C;S;V;F,15.5,0x00c000,-37.3,0.00e-0
1664134199,C;S;V;F,15.5,0x00c000,-37.4,0.00e-0
1664134200,C;S;V;F,15.4,0x00c000,-37.3,0.00e-0
1664134201,C;S;V;F,15.4,0x00c000,-37.3,0.00e-0
1664134202,C;S;V;F,15.5,0x00c000,-37.4,0.00e-0
1664134203,C;S;V;F,15.3,0x00c000,-37.2,
1664134204,,15.3,0x00c000,-37.4,0.00e-0
1664134205,C;S;V;F,15.0,0x00c000,-37.7,0.00e-0
1664134206,C;S;V;F,15.1,0x00c000,-37.6,0.00e-0
1664134207,C;S;V;F,,0x00c000,-37.2,0.00e-0
1664134208,C;S;V;F,15.6,0x00c000,-36.9,0.00e-0
1664134209,C;S;V;F,15.7,0x00c000,,0.00e-0
1664134210,C;S;V;F,15.9,0x00c000,-36.6,0.00e-0
1664134211,C;S;V;F,16.2,0x00c000,-36.6,0.00e-0
1664134212,C;S;V;F,15.8,0x00c000,-36.9,0.00e-0
1664134213,C;S;V;F,15.2,0x00c000,-37.9,0.00e-0
1664134214,C;S;V;F,14.4,0x00c000,-38.5,0.00e-0
1664134215,C;S;V;F,14.1,0x00c000,-38.4,
1664134216,,14.6,0x00c000,-37.7,0.00e-0
1664134217,C;S;V;F,15.9,0x00c000,-37.2,0.00e-0
1664134218,C;S;V;F,15.8,0x00c000,-36.7,0.00e-0
1664134219,C;S;V;F,,0x00c000,-36.6,0.00e-0
1664134220,C;S;V;F,16.0,0x00c000,,0.00e-0
1664134221,C;S;V;F,15.5,0x00c000,-37.4,0.00e-0
1664134222,C;S;V;F,14.7,0x00c000,-38.0,0.00e-0
1664134223,C;S;V;F,14.5,0x00c000,-38.4,0.00e-0
1664134224,C;S;V;F,14.9,0x00c000,-38.0,0.00e-0
1664134225,C;S;V;F,15.5,0x00c000,-37.2,0.00e-0
1664134226,C;S;V;F,15.5,0x00c000,-36.9,0.00e-0
1664134227,C;S;V;F,15.6,0x00c000,-37.2,
1664134228,,14.6,0x00c000,-38.2,0.00e-0
1664134229,C;S;V;F,13.6,0x00c000,-39.0,0.00e-0
1664134230,C;S;V;F,12.9,0x00c000,-39.8,0.00e-0
1664134231,C;S;V;F,,0x00c000,-40.3,0.00e-0
1664134232,C;S;V;F,12.7,0x00c000,,1.51e-7
1664134233,C;S;V;F,13.1,0x00c000,-39.9,4.54e-7
1664134234,C;S;V;F,13.1,0x00c000,-39.8,3.03e-7
1664134235,C;S;V;F,13.3,0x00c000,-39.5,0.00e-0
1664134236,C;S;V;F,13.3,0x00c000,-39.9,0.00e-0
1664134237,C;S;V;F,13.1,0x00c000,-40.0,1.51e-7
1664134238,C;S;V;F,12.7,0x00c000,-40.2,7.57e-7
1664134239,C;S;V;F,12.7,0x00c000,-40.3,9.09e-7
1664134240,C;S;V;F,12.5,0x00c000,-40.1,1.21e-6
1664134241,C;S;V;F,12.8,0x00c000,-39.8,
1664134242,,13.0,0x00c000,-39.5,7.57e-7
1664134243,C;S;V;F,14.2,0x00c000,-38.8,3.03e-7
1664134244,C;S;V;F,14.3,0x00c000,-38.6,1.51e-7
1664134245,C;S;V;F,,0x00c000,-38.3,0.00e-0
1664134246,C;S;V;F,14.7,0x00c000,,0.00e-0
1664134247,C;S;V;F,14.6,0x00c000,-38.1,0.00e-0
1664134248,C;S;V;F,14.7,0x00c000,-38.0,0.00e-0
1664134249,C;S;V;F,14.4,0x00c000,-37.9,0.00e-0
1664134250,C;S;V;F,14.7,0x00c000,-37.7,0.00e-0
1664134251,C;S;V;F,15.2,0x00c000,-37.4,0.00e-0
1664134252,C;S;V;F,15.4,0x00c000,-37.4,0.00e-0
1664134253,C;S;V;F,15.2,0x00c000,-37.9,0.00e-0
1664134254,C;S;V;F,14.9,0x00c000,-38.3,0.00e-0
1664134257,C;S;V;F,14.2,0x00c000,-38.8,0.00e-0
1664134258,C;S;V;F,14.4,0x00c000,-38.3,0.00e-0
1664134259,C;S;V;F,14.0,0x00c000,-38.9,0.00e-0
1664134260,C;S;V;F,13.3,0x00c000,-39.5,0.00e-0
1664134261,C;S;V;F,12.8,0x00c000,-40.2,
1664134262,,12.1,0x00c000,-40.7,0.00e-0
1664134263,C;S;V;F,11.8,0x00c000,-40.9,7.57e-7
1664134264,C;S;V;F,12.1,0x00c000,-40.5,3.02e-6
1664134265,C;S;V;F,,0x00c000,,3.93e-6
1664134266,C;S;V;F,12.5,0x00c000,-40.2,1.51e-6
1664134267,C;S;V;F,13.0,0x00c000,-39.6,0.00e-0
1664134268,C;S;V;F,13.4,0x00c000,-39.2,0.00e-0
1664134269,C;S;V;F,14.9,0x00c000,-38.1,0.00e-0
1664134270,C;S;V;F,14.7,0x00c000,-37.9,0.00e-0
1664134271,C;S;V;F,14.3,0x00c000,-38.4,0.00e-0
1664134272,C;S;V;F,14.0,0x00c000,-39.1,
1664134273,,14.1,0x00c000,-38.8,0.00e-0
1664134274,C;S;V;F,14.7,0x00c000,-37.7,0.00e-0
1664134275,C;S;V;F,,0x00c000,,0.00e-0
1664134276,C;S;V;F,15.9,0x00c000,-37.1,0.00e-0
1664134277,C;S;V;F,15.5,0x00c000,-37.5,0.00e-0
1664134278,C;S;V;F,15.2,0x00c000,-37.8,0.00e-0
1664134279,,,0x00c000,-36.9,
1664134280,C;S;V;F,15.6,0x00c000,,0.00e-0
1664134281,C;S;V;F,16.3,0x00c000,-36.0,0.00e-0
1664134282,C;S;V;F,16.7,0x00c000,-35.9,0.00e-0
1664134283,C;S;V;F,16.7,0x00c000,-36.0,0.00e-0
1664134284,C;S;V;F,16.6,0x00c000,-36.5,0.00e-0
1664134285,C;S;V;F,15.9,0x00c000,-36.7,0.00e-0
1664134286,C;S;V;F,16.4,0x00c000,-36.3,0.00e-0
1664134287,C;S;V;F,16.9,0x00c000,-35.6,
1664134288,,17.1,0x00c000,-35.4,0.00e-0
1664134289,C;S;V;F,16.7,0x00c000,-35.6,0.00e-0
1664134290,C;S;V;F,,0x00c000,-35.7,0.00e-0
1664134291,C;S;V;F,16.8,0x00c000,-35.0,0.00e-0
1664134292,C;S;V;F,17.4,0x00c000,,0.00e-0
1664134293,C;S;V;F,17.9,0x00c000,-33.9,0.00e-0
1664134294,C;S;V;F,18.2,0x00c000,-33.6,0.00e-0
1664134295,C;S;V;F,18.2,0x00c000,-33.8,0.00e-0
1664134296,C;S;V;F,17.9,0x00c000,-34.8,0.00e-0
1664134297,C;S;V;F,17.0,0x00c000,-35.3,0.00e-0
1664134298,C;S;V;F,17.4,0x00c000,-34.8,0.00e-0
1664134299,C;S;V;F,17.6,0x00c000,-34.1,
1664134300,,18.0,0x00c000,-33.4,0.00e-0
1664134301,C;S;V;F,18.2,0x00c000,-33.6,0.00e-0
1664134302,C;S;V;F,18.0,0x00c000,-34.0,0.00e-0
1664134303,C;S;V;F,,0x00c000,-34.6,0.00e-0
1664134304,C;S;V;F,17.4,0x00c000,,0.00e-0
1664134305,C;S;V;F,17.5,0x00c000,-34.5,0.00e-0
1664134306,C;S;V;F,17.9,0x00c000,-34.4,0.00e-0
1664134307,C;S;V;F,17.7,0x00c000,-34.3,0.00e-0
1664134308,C;S;V;F,17.2,0x00c000,-34.8,0.00e-0
1664134309,C;S;V;F,17.2,0x00c000,-35.4,0.00e-0
1664134310,C;S;V;F,17.0,0x00c000,-35.2,0.00e-0
1664134311,C;S;V;F,17.3,0x00c000,-35.1,
1664134312,,17.3,0x00c000,-34.8,0.00e-0
1664134313,C;S;V;F,17.5,0x00c000,-34.9,0.00e-0
1664134314,C;S;V;F,16.9,0x00c000,-35.7,0.00e-0
1664134315,C;S;V;F,,0x00c000,-37.0,0.00e-0
1664134316,C;S;V;F,16.1,0x00c000,,0.00e-0
1664134317,C;S;V;F,15.7,0x00c000,-37.1,0.00e-0
1664134320,C;S;V;F,16.3,0x00c000,-36.0,0.00e-0
1664134321,C;S;V;F,16.3,0x00c000,-36.7,0.00e-0
1664134322,C;S;V;F,14.9,0x00c000,-37.6,0.00e-0
1664134323,C;S;V;F,15.2,0x00c000,-37.6,0.00e-0
1664134324,C;S;V;F,15.6,0x00c000,-37.1,0.00e-0
1664134325,C;S;V;F,15.9,0x00c000,-36.7,0.00e-0
1664134326,C;S;V;F,15.7,0x00c000,-36.8,0.00e-0
1664134327,C;S;V;F,14.9,0x00c000,-37.9,
1664134328,,14.0,0x00c000,-38.8,0.00e-0
1664134329,C;S;V;F,14.0,0x00c000,-38.7,0.00e-0
1664134330,C;S;V;F,,0x00c000,-37.8,0.00e-0
1664134331,C;S;V;F,14.5,0x00c000,-36.5,0.00e-0
1664134332,C;S;V;F,15.8,0x00c000,,0.00e-0
1664134333,C;S;V;F,16.3,0x00c000,-36.1,0.00e-0
1664134334,C;S;V;F,16.4,0x00c000,-36.4,0.00e-0
1664134335,C;S;V;F,14.9,0x00c000,-37.3,0.00e-0
1664134336,C;S;V;F,14.5,0x00c000,-38.4,0.00e-0
1664134337,C;S;V;F,14.8,0x00c000,-38.1,0.00e-0
1664134338,C;S;V;F,14.8,0x00c000,-36.9,0.00e-0
1664134339,C;S;V;F,16.8,0x00c000,-35.6,0.00e-0
1664134340,C;S;V;F,16.6,0x00c000,-35.5,
1664134341,,15.9,0x00c000,-36.3,0.00e-0
1664134342,C;S;V;F,14.8,0x00c000,-38.0,0.00e-0
1664134343,C;S;V;F,14.1,0x00c000,-38.6,0.00e-0
1664134344,C;S;V;F,,0x00c000,-38.1,0.00e-0
1664134345,C;S;V;F,14.4,0x00c000,,0.00e-0
1664134346,C;S;V;F,15.4,0x00c000,-37.0,0.00e-0
1664134347,C;S;V;F,16.3,0x00c000,-36.1,0.00e-0
1664134348,C;S;V;F,16.4,0x00c000,-36.1,0.00e-0
1664134349,C;S;V;F,15.7,0x00c000,-37.1,0.00e-0
1664134350,C;S;V;F,14.3,0x00c000,-38.8,0.00e-0
1664134351,C;S;V;F,13.3,0x00c000,-39.3,0.00e-0
1664134352,C;S;V;F,13.6,0x00c000,-38.7,0.00e-0
1664134353,C;S;V;F,15.2,0x00c000,-36.7,0.00e-0
1664134354,C;S;V;F,16.4,0x00c000,-35.6,
1664134355,,17.2,0x00c000,-35.0,0.00e-0
1664134356,C;S;V;F,,0x00c000,-35.5,0.00e-0
1664134357,C;S;V;F,16.6,0x00c000,,0.00e-0
1664134358,C;S;V;F,15.5,0x00c000,-36.8,0.00e-0
1664134359,C;S;V;F,14.6,0x00c000,-38.0,0.00e-0
1664134360,C;S;V;F,15.2,0x00c000,-37.8,0.00e-0
1664134361,C;S;V;F,16.2,0x00c000,-36.5,0.00e-0
1664134362,C;S;V;F,16.9,0x00c000,-35.4,0.00e-0
1664134363,C;S;V;F,17.3,0x00c000,-35.1,0.00e-0
1664134364,C;S;V;F,17.0,0x00c000,-35.1,0.00e-0
1664134365,C;S;V;F,16.4,0x00c000,-36.1,
1664134366,,15.8,0x00c000,-36.8,0.00e-0
1664134367,C;S;V;F,15.8,0x00c000,-36.6,0.00e-0
1664134368,C;S;V;F,,0x00c000,-35.7,0.00e-0
1664134369,C;S;V;F,16.7,0x00c000,,0.00e-0
1664134370,C;S;V;F,17.3,0x00c000,-34.8,0.00e-0
1664134371,C;S;V;F,17.6,0x00c000,-34.1,0.00e-0
1664134372,C;S;V;F,17.8,0x00c000,-34.2,0.00e-0
1664134373,C;S;V;F,17.7,0x00c000,-34.4,0.00e-0
1664134374,C;S;V;F,17.3,0x00c000,-35.1,0.00e-0
1664134375,C;S;V;F,17.0,0x00c000,-35.6,
1664134376,,16.6,0x00c000,-35.6,0.00e-0
1664134377,C;S;V;F,17.2,0x00c000,-35.4,0.00e-0
1664134378,C;S;V;F,17.3,0x00c000,-34.8,0.00e-0
1664134379,C;S;V;F,,0x00c000,-34.2,0.00e-0
1664134380,C;S;V;F,17.8,0x00c000,,0.00e-0
1664134382,,,0x00c000,-34.0,
1664134383,C;S;V;F,17.8,0x00c000,,0.00e-0
1664134384,C;S;V;F,17.6,0x00c000,-34.5,0.00e-0
1664134385,C;S;V;F,17.4,0x00c000,-34.6,0.00e-0
1664134386,C;S;V;F,17.6,0x00c000,-34.5,0.00e-0
1664134387,C;S;V;F,17.8,0x00c000,-33.9,0.00e-0
1664134388,C;S;V;F,18.1,0x00c000,-33.3,0.00e-0
1664134389,C;S;V;F,18.4,0x00c000,-33.2,0.00e-0
1664134390,C;S;V;F,18.5,0x00c000,-32.9,0.00e-0
1664134391,C;S;V;F,18.5,0x00c000,-32.7,
1664134392,,18.5,0x00c000,-33.1,0.00e-0
1664134393,C;S;V;F,18.4,0x00c000,-33.2,0.00e-0
1664134394,C;S;V;F,18.2,0x00c000,-33.9,0.00e-0
1664134395,C;S;V;F,,0x00c000,-34.0,0.00e-0
1664134396,C;S;V;F,18.0,0x00c000,,0.00e-0
1664134397,C;S;V;F,17.9,0x00c000,-33.9,0.00e-0
1664134398,C;S;V;F,18.0,0x00c000,-33.8,0.00e-0
1664134399,C;S;V;F,18.3,0x00c000,-33.2,0.00e-0
1664134400,C;S;V;F,18.3,0x00c000,-33.0,0.00e-0
1664134401,C;S;V;F,18.5,0x00c000,-32.8,0.00e-0
1664134402,C;S;V;F,18.6,0x00c000,-33.0,0.00e-0
1664134403,C;S;V;F,18.2,0x00c000,-33.2,
1664134404,,18.3,0x00c000,-33.2,0.00e-0
1664134405,C;S;V;F,17.8,0x00c000,-34.0,0.00e-0
1664134406,C;S;V;F,17.9,0x00c000,-34.2,0.00e-0
1664134407,C;S;V;F,,0x00c000,-34.1,0.00e-0
1664134408,C;S;V;F,17.8,0x00c000,,0.00e-0
1664134409,C;S;V;F,17.8,0x00c000,-33.7,0.00e-0
1664134410,C;S;V;F,18.1,0x00c000,-33.5,0.00e-0
1664134411,C;S;V;F,18.4,0x00c000,-33.3,0.00e-0
1664134412,C;S;V;F,18.5,0x00c000,-33.0,0.00e-0
1664134413,C;S;V;F,18.4,0x00c000,-33.2,0.00e-0
1664134414,C;S;V;F,18.4,0x00c000,-33.2,0.00e-0
1664134415,C;S;V;F,18.3,0x00c000,-33.4,
1664134416,,18.2,0x00c000,-33.6,0.00e-0
1664134417,C;S;V;F,18.0,0x00c000,-34.0,0.00e-0
1664134418,C;S;V;F,,0x00c000,-33.9,0.00e-0
1664134419,C;S;V;F,17.9,0x00c000,-33.9,0.00e-0
1664134420,C;S;V;F,17.9,0x00c000,,0.00e-0
1664134421,C;S;V;F,18.1,0x00c000,-33.7,0.00e-0
1664134422,C;S;V;F,17.8,0x00c000,-33.6,0.00e-0
1664134423,C;S;V;F,18.1,0x00c000,-33.8,0.00e-0
1664134424,C;S;V;F,17.7,0x00c000,-34.0,0.00e-0